TimeCET,TemperatureF,Dew PointF,Humidity,Sea Level PressureIn,VisibilityMPH,Wind Direction,Wind SpeedMPH,Gust SpeedMPH,PrecipitationIn,Events,Conditions,WindDirDegrees,DateUTC
12:45 AM,39.2,37.4,93,30.09,5.0,ESE,9.2,-,N/A,,Unknown,120,2012-11-17 23:45:00
1:45 AM,39.2,37.4,93,30.09,5.0,ESE,8.1,-,N/A,,Unknown,110,2012-11-18 00:45:00
2:45 AM,39.2,37.4,93,30.09,5.0,ESE,9.2,-,N/A,,Unknown,110,2012-11-18 01:45:00
3:45 AM,39.2,37.4,93,30.06,5.0,ESE,10.4,-,N/A,,Scattered Clouds,110,2012-11-18 02:45:00
4:45 AM,39.2,37.4,93,30.06,-9999.0,ESE,9.2,-,N/A,,Clear,120,2012-11-18 03:45:00
5:45 AM,41.0,39.2,93,30.06,-9999.0,SE,11.5,-,N/A,,Clear,130,2012-11-18 04:45:00
6:15 AM,41.0,39.2,93,30.06,-9999.0,SE,9.2,-,N/A,,Clear,130,2012-11-18 05:15:00
6:45 AM,41.0,39.2,93,30.06,6.2,ESE,10.4,-,N/A,,Mostly Cloudy,120,2012-11-18 05:45:00
7:00 AM,41,39,88,30.09,6,ESE,8.9,,,,Partly Cloudy,120,2012-11-18 06:00:00
7:15 AM,41.0,37.4,87,30.09,-9999.0,SE,9.2,-,N/A,,Clear,130,2012-11-18 06:15:00
7:45 AM,41.0,39.2,93,30.09,-9999.0,SE,6.9,-,N/A,,Clear,130,2012-11-18 06:45:00
8:15 AM,41.0,39.2,93,30.09,-9999.0,SE,6.9,-,N/A,,Clear,130,2012-11-18 07:15:00
8:45 AM,42.8,39.2,87,30.09,-9999.0,SE,11.5,-,N/A,,Clear,130,2012-11-18 07:45:00
9:15 AM,44.6,41.0,87,30.06,-9999.0,SE,11.5,-,N/A,,Clear,130,2012-11-18 08:15:00
9:45 AM,46.4,42.8,87,30.06,-9999.0,SE,10.4,-,N/A,,Clear,140,2012-11-18 08:45:00
10:45 AM,50.0,42.8,76,30.06,-9999.0,SE,13.8,-,N/A,,Clear,140,2012-11-18 09:45:00
11:15 AM,50.0,42.8,76,30.06,-9999.0,SE,13.8,-,N/A,,Clear,140,2012-11-18 10:15:00
11:45 AM,51.8,44.6,76,30.06,6.2,SSE,13.8,-,N/A,,Partly Cloudy,150,2012-11-18 10:45:00
12:15 PM,51.8,44.6,76,30.06,6.2,SSE,10.4,-,N/A,,Partly Cloudy,150,2012-11-18 11:15:00
12:45 PM,53.6,44.6,72,30.04,-9999.0,SE,9.2,-,N/A,,Clear,130,2012-11-18 11:45:00
1:00 PM,54,45,63,30.05,12,SE,8.9,,,,Partly Cloudy,130,2012-11-18 12:00:00
1:15 PM,55.4,44.6,67,30.04,-9999.0,SSE,11.5,-,N/A,,Clear,150,2012-11-18 12:15:00
1:45 PM,55.4,44.6,67,30.04,-9999.0,SE,10.4,-,N/A,,Clear,140,2012-11-18 12:45:00
2:15 PM,55.4,44.6,67,30.04,-9999.0,SE,9.2,-,N/A,,Clear,130,2012-11-18 13:15:00
2:45 PM,55.4,44.6,67,30.04,-9999.0,SSE,10.4,-,N/A,,Clear,150,2012-11-18 13:45:00
3:15 PM,53.6,44.6,72,30.04,-9999.0,SSE,6.9,-,N/A,,Clear,160,2012-11-18 14:15:00
3:45 PM,51.8,44.6,76,30.04,-9999.0,SE,6.9,-,N/A,,Clear,130,2012-11-18 14:45:00
4:15 PM,50.0,44.6,82,30.04,-9999.0,ESE,9.2,-,N/A,,Clear,120,2012-11-18 15:15:00
4:45 PM,50.0,42.8,76,30.04,-9999.0,SE,10.4,-,N/A,,Clear,130,2012-11-18 15:45:00
5:15 PM,48.2,42.8,82,30.06,-9999.0,SE,10.4,-,N/A,,Clear,140,2012-11-18 16:15:00
5:45 PM,48.2,41.0,76,30.06,-9999.0,SE,10.4,-,N/A,,Clear,140,2012-11-18 16:45:00
6:15 PM,46.4,41.0,81,30.06,-9999.0,SE,6.9,-,N/A,,Clear,140,2012-11-18 17:15:00
6:45 PM,46.4,41.0,81,30.06,-9999.0,SE,6.9,-,N/A,,Clear,140,2012-11-18 17:45:00
7:00 PM,46,41,77,30.08,12,SE,6.7,,,,Partly Cloudy,140,2012-11-18 18:00:00
7:15 PM,46.4,41.0,81,30.06,-9999.0,SE,10.4,-,N/A,,Clear,140,2012-11-18 18:15:00
7:45 PM,44.6,41.0,87,30.06,-9999.0,SE,8.1,-,N/A,,Clear,140,2012-11-18 18:45:00
8:15 PM,44.6,39.2,81,30.06,-9999.0,SE,9.2,-,N/A,,Clear,140,2012-11-18 19:15:00
8:45 PM,42.8,39.2,87,30.06,-9999.0,SE,5.8,-,N/A,,Clear,140,2012-11-18 19:45:00
9:45 PM,41.0,37.4,87,30.09,-9999.0,SSE,3.5,-,N/A,,Clear,160,2012-11-18 20:45:00
10:45 PM,39.2,39.2,100,30.09,-9999.0,ESE,4.6,-,N/A,,Clear,120,2012-11-18 21:45:00
11:45 PM,41.0,39.2,93,30.09,-9999.0,ESE,6.9,-,N/A,,Clear,110,2012-11-18 22:45:00